Visibility
15.0 15.0 15.0 15.0 5.7 15.0 15.0 15.0 15.0 15.0 15.0 15.0 15.0 15.0 15.0 15.0 15.0 15.0 15.0 15.0 10.8 15.0 15.0 15.0 9.3 15.0 15.0 15.0 15.0 15.0 15.0 15.0 15.0 15.0 15.0 15.0 15.0 15.0 15.0 15.0 15.0 15.0 15.0
15.0 15.0 15.0 13.5 2.8 6.9 2.3 4.8 15.0 10.3 15.0 15.0 15.0 15.0 15.0 15.0 15.0 15.0 15.0 15.0 15.0 8.1 11.5 12.1 15.0 15.0 15.0 15.0 15.0 15.0 15.0 15.0 15.0 15.0 15.0 15.0 15.0 15.0 15.0 15.0 15.0 15.0 15.0
14.2 15.0 13.9 4.3 4.2 15.0 14.0 12.5 15.0 15.0 15.0 15.0 15.0 15.0 15.0 15.0 15.0 15.0 15.0 15.0 15.0 9.2 13.2 15.0 15.0 15.0 15.0 15.0 15.0 15.0 15.0 15.0 15.0 15.0 15.0 15.0 15.0 15.0 15.0 15.0 15.0 15.0 15.0
15.0 15.0 8.2 7.0 15.0 15.0 15.0 15.0 15.0 9.0 9.9 15.0 15.0 14.2 15.0 15.0 15.0 15.0 15.0 15.0 15.0 15.0 15.0 15.0 15.0 15.0 15.0 15.0 15.0 15.0 15.0 15.0 15.0 15.0 15.0 15.0 15.0 15.0 15.0 14.0 15.0 15.0 15.0
5.6 15.0 15.0 15.0 15.0 15.0 15.0 15.0 8.9 15.0 14.4 15.0 15.0 15.0 15.0 15.0 15.0 15.0 15.0 15.0 15.0 15.0 15.0 15.0 15.0 15.0 15.0 15.0 15.0 15.0 15.0 15.0 15.0 15.0 15.0 15.0 15.0 15.0 15.0 15.0 14.7 15.0 15.0
15.0 15.0 15.0 15.0 15.0 15.0 15.0 15.0 15.0 15.0 15.0 15.0 15.0 15.0 15.0 15.0 15.0 15.0 15.0 15.0 15.0 15.0 15.0 15.0 15.0 15.0 15.0 15.0 15.0 15.0 15.0 15.0 15.0 15.0 15.0 15.0 15.0 15.0 15.0 14.9 12.9 4.1 7.9
15.0 15.0 15.0 15.0 15.0 15.0 15.0 15.0 15.0 15.0 15.0 15.0 15.0 15.0 15.0 15.0 15.0 15.0 15.0 15.0 15.0 15.0 15.0 15.0 15.0 15.0 15.0 15.0 15.0 15.0 15.0 15.0 15.0 15.0 15.0 15.0 15.0 15.0 15.0 14.8 14.1 5.9 0.2
15.0 11.8 7.9 15.0 15.0 9.3 15.0 15.0 15.0 15.0 15.0 15.0 15.0 15.0 15.0 15.0 15.0 15.0 15.0 15.0 15.0 15.0 15.0 15.0 15.0 15.0 15.0 15.0 15.0 15.0 15.0 15.0 15.0 15.0 15.0 15.0 15.0 15.0 15.0 15.0 15.0 14.4 6.5
15.0 15.0 15.0 15.0 15.0 15.0 15.0 15.0 15.0 15.0 15.0 15.0 15.0 15.0 15.0 15.0 15.0 15.0 15.0 15.0 15.0 15.0 15.0 15.0 15.0 15.0 15.0 15.0 15.0 15.0 15.0 15.0 15.0 15.0 15.0 15.0 15.0 15.0 15.0 15.0 3.4 1.6 1.1
15.0 15.0 15.0 15.0 15.0 15.0 15.0 15.0 15.0 15.0 15.0 15.0 15.0 15.0 15.0 15.0 15.0 14.6 15.0 15.0 15.0 15.0 15.0 15.0 15.0 15.0 15.0 15.0 15.0 15.0 15.0 15.0 15.0 15.0 15.0 15.0 15.0 15.0 15.0 15.0 0.7 1.0 0.7
15.0 15.0 15.0 15.0 15.0 15.0 15.0 15.0 15.0 15.0 15.0 15.0 15.0 15.0 15.0 15.0 15.0 15.0 15.0 15.0 15.0 15.0 15.0 15.0 15.0 15.0 15.0 15.0 15.0 15.0 15.0 15.0 10.4 15.0 15.0 15.0 15.0 15.0 15.0 13.6 15.0 0.1 0.1
15.0 15.0 15.0 15.0 15.0 15.0 15.0 15.0 15.0 15.0 15.0 15.0 15.0 15.0 15.0 15.0 15.0 15.0 15.0 15.0 15.0 15.0 15.0 15.0 15.0 15.0 15.0 15.0 15.0 15.0 15.0 15.0 15.0 5.2 2.0 11.1 15.0 15.0 15.0 15.0 10.8 15.0 15.0
15.0 15.0 15.0 15.0 15.0 15.0 15.0 15.0 15.0 15.0 15.0 15.0 15.0 15.0 15.0 15.0 15.0 15.0 15.0 15.0 15.0 15.0 15.0 15.0 15.0 15.0 15.0 15.0 15.0 15.0 15.0 15.0 2.7 3.1 10.9 13.5 2.7 14.5 15.0 0.0 0.0 0.0 0.6
15.0 15.0 15.0 15.0 15.0 15.0 15.0 15.0 15.0 15.0 15.0 15.0 15.0 15.0 15.0 15.0 15.0 15.0 15.0 15.0 15.0 15.0 15.0 15.0 15.0 15.0 15.0 15.0 15.0 15.0 15.0 15.0 12.3 6.9 2.6 11.9 15.0 15.0 0.2 0.0 0.1 0.8 0.2
15.0 15.0 15.0 15.0 15.0 15.0 15.0 15.0 15.0 15.0 15.0 15.0 15.0 15.0 15.0 15.0 15.0 15.0 15.0 15.0 15.0 15.0 15.0 11.3 15.0 15.0 15.0 15.0 15.0 15.0 15.0 15.0 15.0 15.0 6.5 4.0 8.4 0.1 0.1 1.3 3.5 1.2 0.1
15.0 15.0 15.0 15.0 15.0 15.0 15.0 15.0 15.0 15.0 15.0 15.0 15.0 15.0 15.0 15.0 15.0 15.0 15.0 15.0 15.0 15.0 15.0 9.7 7.8 7.9 15.0 15.0 15.0 15.0 15.0 15.0 15.0 12.2 12.1 8.0 1.4 1.1 0.1 1.8 1.6 1.0 1.3
15.0 15.0 15.0 15.0 15.0 15.0 15.0 15.0 15.0 15.0 15.0 15.0 15.0 15.0 15.0 15.0 15.0 15.0 15.0 15.0 15.0 15.0 15.0 14.9 12.7 5.7 11.2 15.0 14.9 15.0 15.0 15.0 15.0 14.7 13.3 1.2 0.5 0.2 0.1 0.1 0.1 0.2 1.3
15.0 15.0 15.0 15.0 15.0 15.0 15.0 15.0 15.0 13.0 2.5 9.6 15.0 15.0 15.0 15.0 13.9 15.0 15.0 15.0 15.0 15.0 15.0 15.0 6.0 15.0 15.0 15.0 15.0 13.4 12.3 12.9 9.2 14.9 14.2 1.0 0.4 0.1 0.1 0.1 0.2 0.4 0.2
15.0 12.0 12.4 11.3 8.2 5.3 11.7 8.2 3.1 15.0 15.0 15.0 15.0 15.0 15.0 15.0 15.0 15.0 15.0 15.0 13.1 15.0 15.0 15.0 15.0 5.5 15.0 12.7 4.4 4.5 4.0 12.8 3.2 14.7 14.4 0.7 0.5 0.1 0.1 0.1 0.1 0.7 0.5
1.3 1.8 2.8 1.3 0.4 0.3 0.9 2.3 4.7 5.0 11.8 15.0 15.0 15.0 15.0 15.0 15.0 15.0 9.3 15.0 5.0 4.9 6.7 15.0 6.6 13.7 4.5 9.1 3.9 0.9 15.0 15.0 1.8 14.7 1.3 3.3 8.7 0.1 0.1 0.1 0.2 0.1 0.2
0.3 0.1 0.1 0.1 0.2 0.3 0.2 0.8 15.0 15.0 15.0 15.0 15.0 15.0 15.0 15.0 15.0 14.8 6.1 4.3 4.1 5.4 4.1 3.4 4.1 4.1 4.8 3.6 1.1 15.0 15.0 2.0 4.2 1.2 1.5 14.9 8.9 0.6 0.1 0.1 0.1 0.4 4.4
0.1 0.1 0.1 0.1 0.1 0.2 8.4 15.0 15.0 12.5 15.0 15.0 15.0 15.0 15.0 11.9 6.3 6.3 11.9 6.4 11.3 4.8 4.1 4.1 4.1 4.1 1.8 8.9 15.0 11.8 0.6 0.5 2.8 10.7 2.8 0.9 1.1 3.5 6.6 0.1 0.1 0.4 0.8
0.1 0.1 0.1 0.4 2.0 2.9 5.0 11.9 15.0 15.0 15.0 15.0 15.0 15.0 15.0 3.1 1.8 3.8 7.4 4.7 3.7 4.1 4.2 9.5 2.1 6.4 15.0 15.0 5.8 0.6 4.4 7.1 2.4 0.5 0.3 0.5 1.8 2.8 2.4 0.9 0.9 0.3 0.4
0.2 0.5 2.0 2.9 4.0 3.8 4.9 3.9 15.0 11.9 2.7 2.3 4.0 3.8 2.3 4.1 4.1 2.8 2.1 4.1 3.7 13.6 5.4 12.4 15.0 15.0 4.6 6.0 13.5 15.0 2.5 0.8 0.3 0.2 1.0 0.3 0.6 1.3 1.5 1.3 2.4 1.2 0.1
0.1 0.1 0.1 0.1 0.1 0.2 0.1 0.2 0.5 1.5 2.1 1.3 0.8 3.6 5.4 4.1 4.1 11.0 14.9 5.6 14.6 2.3 15.0 15.0 15.0 15.0 15.0 15.0 15.0 10.0 1.5 0.9 2.7 10.2 0.7 0.5 0.7 1.0 0.8 0.7 1.4 0.9 0.3
0.2 0.2 0.6 3.5 3.0 4.1 5.2 3.8 4.3 4.1 4.1 2.4 11.5 14.0 2.9 4.1 4.6 5.0 15.0 9.7 3.5 15.0 15.0 15.0 15.0 15.0 15.0 15.0 10.3 4.9 0.6 2.3 2.2 1.0 0.2 0.2 0.4 0.9 1.3 0.8 1.6 0.4 0.3